EN

Hourly Weather Abdulnasyrovo

Today, 12 June, Saturday

Time Temperature Precipitation Wind Pressure Humidity
00:00 +14°C° 0 mm 4 mps 726 mmHg 65%
01:00 +14°C° 0 mm 4 mps 726 mmHg 63%
02:00 +13°C° 0 mm 4 mps 726 mmHg 61%
03:00 +13°C° 0 mm 4 mps 726 mmHg 60%
04:00 +12°C° 0 mm 4 mps 726 mmHg 59%
05:00 +14°C° 0 mm 5 mps 726 mmHg 56%
06:00 +15°C° 0 mm 5 mps 727 mmHg 53%
07:00 +16°C° 0 mm 6 mps 727 mmHg 50%
08:00 +19°C° 0 mm 6 mps 727 mmHg 46%
09:00 +21°C° 0 mm 7 mps 727 mmHg 41%
10:00 +23°C° 0 mm 7 mps 727 mmHg 37%
11:00 +24°C° 0 mm 7 mps 727 mmHg 35%
12:00 +26°C° 0 mm 7 mps 727 mmHg 34%
13:00 +27°C° 0 mm 6 mps 727 mmHg 32%
14:00 +27°C° 0 mm 6 mps 727 mmHg 36%
15:00 +26°C° 0 mm 5 mps 726 mmHg 39%
16:00 +28°C° 0 mm 5 mps 726 mmHg 31%
17:00 +26°C° 0 mm 5 mps 726 mmHg 37%
18:00 +23°C° 0 mm 4 mps 726 mmHg 44%
19:00 +21°C° 0 mm 4 mps 726 mmHg 50%
20:00 +20°C° 0.1 mm 4 mps 726 mmHg 56%
21:00 +19°C° 0.1 mm 3 mps 726 mmHg 61%
22:00 +19°C° 0.1 mm 3 mps 727 mmHg 67%
23:00 +18°C° 0.1 mm 3 mps 727 mmHg 68%

Tomorrow, 13 June, Sunday

Time Temperature Precipitation Wind Pressure Humidity
00:00 +18°C° 0.1 mm 3 mps 727 mmHg 69%
01:00 +18°C° 0.1 mm 3 mps 727 mmHg 70%
02:00 +18°C° 0 mm 3 mps 728 mmHg 61%
03:00 +17°C° 0 mm 3 mps 728 mmHg 53%
04:00 +17°C° 0 mm 3 mps 728 mmHg 44%
05:00 +17°C° 0 mm 4 mps 728 mmHg 45%
06:00 +18°C° 0 mm 4 mps 729 mmHg 45%
07:00 +18°C° 0 mm 4 mps 729 mmHg 46%
08:00 +18°C° 0 mm 4 mps 729 mmHg 47%
09:00 +18°C° 0 mm 4 mps 729 mmHg 48%
10:00 +19°C° 0 mm 4 mps 729 mmHg 49%
11:00 +20°C° 0 mm 4 mps 729 mmHg 45%
12:00 +21°C° 0 mm 4 mps 729 mmHg 41%
13:00 +22°C° 0 mm 4 mps 729 mmHg 37%
14:00 +23°C° 0 mm 4 mps 729 mmHg 37%
15:00 +25°C° 0 mm 5 mps 729 mmHg 36%
16:00 +26°C° 0 mm 5 mps 729 mmHg 36%
17:00 +25°C° 0 mm 4 mps 729 mmHg 40%
18:00 +25°C° 0 mm 4 mps 729 mmHg 44%
19:00 +24°C° 0 mm 3 mps 729 mmHg 48%
20:00 +22°C° 0 mm 3 mps 729 mmHg 48%
21:00 +20°C° 0 mm 3 mps 729 mmHg 48%
22:00 +19°C° 0 mm 3 mps 729 mmHg 47%
23:00 +19°C° 0 mm 2 mps 729 mmHg 46%

Day after tomorrow, 14 June, Monday

Time Temperature Precipitation Wind Pressure Humidity
00:00 +19°C° 0 mm 2 mps 729 mmHg 44%
01:00 +19°C° 0 mm 2 mps 729 mmHg 43%
02:00 +18°C° 0 mm 2 mps 729 mmHg 44%
03:00 +16°C° 0 mm 2 mps 729 mmHg 45%
04:00 +15°C° 0 mm 2 mps 729 mmHg 47%
05:00 +17°C° 0 mm 3 mps 730 mmHg 46%
06:00 +18°C° 0 mm 3 mps 730 mmHg 44%
07:00 +20°C° 0 mm 4 mps 730 mmHg 43%
08:00 +22°C° 0 mm 5 mps 730 mmHg 39%
09:00 +24°C° 0 mm 6 mps 731 mmHg 35%
10:00 +26°C° 0 mm 6 mps 731 mmHg 31%
11:00 +27°C° 0 mm 6 mps 731 mmHg 29%
12:00 +28°C° 0 mm 6 mps 730 mmHg 28%
13:00 +29°C° 0 mm 5 mps 730 mmHg 26%
14:00 +29°C° 0 mm 5 mps 730 mmHg 26%
15:00 +29°C° 0 mm 5 mps 730 mmHg 26%
16:00 +29°C° 0 mm 4 mps 730 mmHg 26%
17:00 +28°C° 0 mm 4 mps 730 mmHg 31%
18:00 +27°C° 0 mm 3 mps 729 mmHg 37%
19:00 +25°C° 0 mm 2 mps 729 mmHg 42%
20:00 +24°C° 0 mm 2 mps 729 mmHg 44%
21:00 +21°C° 0 mm 2 mps 729 mmHg 45%
22:00 +20°C° 0 mm 1 mps 729 mmHg 47%
23:00 +20°C° 0 mm 1 mps 729 mmHg 49%

15 June, Tuesday

Time Temperature Precipitation Wind Pressure Humidity
00:00 +19°C° 0 mm 1 mps 728 mmHg 51%
01:00 +18°C° 0 mm 1 mps 728 mmHg 53%
02:00 +18°C° 0 mm 1 mps 728 mmHg 54%
03:00 +18°C° 0 mm 1 mps 728 mmHg 55%
04:00 +16°C° 0 mm 1 mps 728 mmHg 56%
05:00 +19°C° 0 mm 1 mps 728 mmHg 53%
06:00 +21°C° 0 mm 1 mps 729 mmHg 50%
07:00 +23°C° 0 mm 1 mps 729 mmHg 47%
08:00 +24°C° 0 mm 2 mps 729 mmHg 42%
09:00 +26°C° 0 mm 3 mps 729 mmHg 38%
10:00 +28°C° 0 mm 3 mps 728 mmHg 33%
11:00 +28°C° 0 mm 4 mps 728 mmHg 31%
12:00 +29°C° 0 mm 4 mps 728 mmHg 29%
13:00 +30°C° 0 mm 4 mps 727 mmHg 26%
14:00 +30°C° 0 mm 4 mps 727 mmHg 26%
15:00 +30°C° 0 mm 4 mps 727 mmHg 25%
16:00 +30°C° 0 mm 3 mps 727 mmHg 25%
17:00 +29°C° 0 mm 3 mps 726 mmHg 30%
18:00 +28°C° 0 mm 2 mps 726 mmHg 36%
19:00 +27°C° 0 mm 2 mps 726 mmHg 41%
20:00 +26°C° 0 mm 2 mps 725 mmHg 42%
21:00 +24°C° 0 mm 1 mps 725 mmHg 44%
22:00 +22°C° 0 mm 1 mps 725 mmHg 45%
23:00 +22°C° 0 mm 1 mps 725 mmHg 46%

16 June, Wednesday

Time Temperature Precipitation Wind Pressure Humidity
00:00 +21°C° 0 mm 1 mps 725 mmHg 47%
01:00 +18°C° 0 mm 0 mps 725 mmHg 49%
02:00 +18°C° 0 mm 0 mps 725 mmHg 48%
03:00 +18°C° 0 mm 0 mps 725 mmHg 48%
04:00 +18°C° 0 mm 0 mps 725 mmHg 48%
05:00 +22°C° 0 mm 1 mps 725 mmHg 47%
06:00 +23°C° 0 mm 1 mps 725 mmHg 46%
07:00 +24°C° 0 mm 1 mps 725 mmHg 45%
08:00 +26°C° 0 mm 2 mps 725 mmHg 40%
09:00 +27°C° 0 mm 3 mps 725 mmHg 35%
10:00 +29°C° 0 mm 3 mps 726 mmHg 30%
11:00 +30°C° 0 mm 3 mps 725 mmHg 29%
12:00 +30°C° 0 mm 3 mps 725 mmHg 27%
13:00 +31°C° 0 mm 2 mps 725 mmHg 26%
14:00 +31°C° 0 mm 3 mps 725 mmHg 26%
15:00 +31°C° 0 mm 3 mps 724 mmHg 27%
16:00 +31°C° 0 mm 3 mps 724 mmHg 28%
17:00 +30°C° 0 mm 2 mps 724 mmHg 33%
18:00 +29°C° 0 mm 1 mps 723 mmHg 37%
19:00 +28°C° 0 mm 1 mps 723 mmHg 42%
20:00 +27°C° 0 mm 1 mps 723 mmHg 44%
21:00 +25°C° 0 mm 2 mps 723 mmHg 46%
22:00 +23°C° 0 mm 2 mps 722 mmHg 48%
23:00 +21°C° 0 mm 2 mps 722 mmHg 50%

17 June, Thursday

Time Temperature Precipitation Wind Pressure Humidity
00:00 +21°C° 0 mm 2 mps 721 mmHg 52%
01:00 +20°C° 0 mm 2 mps 721 mmHg 54%
02:00 +19°C° 0.2 mm 2 mps 721 mmHg 58%
03:00 +19°C° 0.2 mm 2 mps 720 mmHg 62%
04:00 +18°C° 0.2 mm 2 mps 720 mmHg 66%
05:00 +20°C° 0 mm 3 mps 720 mmHg 64%
06:00 +21°C° 0 mm 4 mps 720 mmHg 63%
07:00 +22°C° 0 mm 4 mps 720 mmHg 61%
08:00 +25°C° 0 mm 5 mps 720 mmHg 57%
09:00 +26°C° 0 mm 6 mps 720 mmHg 54%
10:00 +28°C° 0 mm 7 mps 720 mmHg 50%
11:00 +28°C° 0 mm 7 mps 720 mmHg 48%
12:00 +29°C° 0 mm 7 mps 720 mmHg 46%
13:00 +29°C° 0 mm 7 mps 719 mmHg 44%
14:00 +28°C° 0.1 mm 7 mps 719 mmHg 49%
15:00 +27°C° 0.1 mm 8 mps 719 mmHg 54%
16:00 +26°C° 0.1 mm 8 mps 719 mmHg 58%
17:00 +24°C° 0 mm 8 mps 720 mmHg 61%
18:00 +22°C° 0 mm 8 mps 720 mmHg 63%
19:00 +21°C° 0 mm 7 mps 720 mmHg 65%
20:00 +18°C° 0 mm 7 mps 721 mmHg 63%
21:00 +17°C° 0 mm 6 mps 721 mmHg 60%
22:00 +15°C° 0 mm 6 mps 722 mmHg 57%
23:00 +14°C° 0 mm 5 mps 722 mmHg 63%
Show more